Retour au catalogue

STARLINK-31997

ActifCommunicationsVLEO
NORAD 60288·PAYLOAD·🇺🇸 United States

Lancé Jul 28, 2024 depuis Cape Canaveral Space Force Station

Loading…

Prochains Passages (prochaines 24 heures)

TLE

FraisSource: CelesTrak SupGP

Époque: Sep 14, 2026, 21:12 UTC

1 60288C 24132L   26257.88381944  .00047126  00000+0  13914-2 0  2579
2 60288  53.1579 252.0757 0001571  93.6587  96.7791 15.34387907    13

Suivez STARLINK-31997 en temps réel avec AllMySat

Download on the App Store